Abilene, TX

7:04 PM CDT on July 27, 2017 (GMT -0500)
Abilene Regional

Weather History for KABI - June, 2013

Change the Weather History Date:

Monday, June 24, 2013

  Actual Average Record
Temperature  
Mean Temperature 84 °F 81 °F  
Max Temperature 93 °F 92 °F 105 °F (1953)
Min Temperature 74 °F 70 °F 60 °F (1957)
Degree Days  
Heating Degree Days 0 0  
Month to date heating degree days 0 0  
Since 1 June heating degree days 0 0  
Since 1 July heating degree days 2301 2558  
Cooling Degree Days 19 16  
Month to date cooling degree days 386 337  
Year to date cooling degree days 867 734  
Since 1 June cooling degree days 386 337  
Growing Degree Days 33 (Base 50)    
Moisture  
Dew Point 64 °F    
Average Humidity 54    
Maximum Humidity 74    
Minimum Humidity 33    
Precipitation  
Precipitation 0.00 in 0.10 in 1.54 in (1915)
Month to date precipitation 5.04 3.05  
Year to date precipitation 11.26 11.99  
Sea Level Pressure  
Sea Level Pressure 29.86 in    
Wind  
Wind Speed 16 mph (South)    
Max Wind Speed 25 mph    
Max Gust Speed 33 mph    
Visibility 10 miles    
Events      
T = Trace of Precipitation, MM = Missing Value Source: NWS Daily Summary

Daily Weather History Graph

Daily Weather History Graph

Search for Another Location

Airport or City:

Trip Planner

Search our weather history database for the weather conditions in past years. The results will help you decide how hot, cold, wet, or windy it might be!

Date:

Astronomy

Jun. 24, 2013 Rise Set
Actual Time 6:32 AM CDT 8:49 PM CDT
Civil Twilight 6:04 AM CDT 9:17 PM CDT
Nautical Twilight 5:29 AM CDT 9:52 PM CDT
Astronomical Twilight 4:51 AM CDT 10:30 PM CDT
Moon 10:00 PM CDT (6/24) 7:56 AM CDT (6/24)
Length of Visible Light 15h 13m
Length of Day
14h 16m
Full, 98% of the Moon is Illuminated
Jun 24
Full
Jun 29
Last Quarter
Jul 8
New
Jul 15
First Quarter
Jul 22
Full

Hourly Weather History & Observations

Time (CDT) Temp. Heat Index Dew Point Humidity Pressure Visibility Wind Dir Wind Speed Gust Speed Precip Events Conditions
12:52 AM 81.0 °F 81.9 °F 62.1 °F 52% 29.85 in 10.0 mi SSE 15.0 mph 24.2 mph N/A   Clear
1:52 AM 80.1 °F 81.2 °F 62.1 °F 54% 29.85 in 10.0 mi SSE 16.1 mph - N/A   Clear
2:52 AM 79.0 °F - 62.1 °F 56% 29.84 in 10.0 mi SSE 17.3 mph 25.3 mph N/A   Clear
3:52 AM 77.0 °F - 64.0 °F 64% 29.85 in 10.0 mi SSE 16.1 mph 23.0 mph N/A   Clear
4:52 AM 75.9 °F - 64.9 °F 69% 29.86 in 10.0 mi SSE 13.8 mph 23.0 mph N/A   Clear
5:52 AM 75.0 °F - 66.0 °F 73% 29.87 in 10.0 mi South 12.7 mph 20.7 mph N/A   Clear
6:52 AM 73.9 °F - 64.9 °F 73% 29.89 in 10.0 mi South 11.5 mph - N/A   Clear
7:52 AM 75.0 °F - 64.9 °F 71% 29.90 in 10.0 mi South 16.1 mph - N/A   Clear
8:52 AM 77.0 °F - 64.9 °F 66% 29.91 in 10.0 mi South 18.4 mph 26.5 mph N/A   Clear
9:52 AM 80.1 °F 82.1 °F 66.0 °F 62% 29.92 in 10.0 mi South 18.4 mph 23.0 mph N/A   Clear
10:52 AM 82.0 °F 84.9 °F 68.0 °F 62% 29.93 in 10.0 mi South 15.0 mph 24.2 mph N/A   Clear
11:52 AM 84.9 °F 88.2 °F 68.0 °F 57% 29.93 in 10.0 mi South 16.1 mph 27.6 mph N/A   Partly Cloudy
12:52 PM 87.1 °F 90.6 °F 68.0 °F 53% 29.91 in 10.0 mi South 19.6 mph 26.5 mph N/A   Partly Cloudy
1:52 PM 88.0 °F 90.7 °F 66.9 °F 49% 29.90 in 10.0 mi South 19.6 mph 27.6 mph N/A   Scattered Clouds
2:52 PM 88.0 °F 89.6 °F 64.9 °F 46% 29.87 in 10.0 mi South 18.4 mph 25.3 mph N/A   Scattered Clouds
3:52 PM 90.0 °F 90.6 °F 63.0 °F 40% 29.86 in 10.0 mi South 16.1 mph 25.3 mph N/A   Clear
4:52 PM 93.0 °F 94.2 °F 63.0 °F 37% 29.82 in 10.0 mi SSE 20.7 mph 31.1 mph N/A   Clear
5:52 PM 93.0 °F 94.2 °F 63.0 °F 37% 29.81 in 10.0 mi South 18.4 mph 23.0 mph N/A   Clear
6:52 PM 93.0 °F 92.7 °F 60.1 °F 33% 29.78 in 10.0 mi South 23.0 mph 27.6 mph N/A   Clear
7:52 PM 91.0 °F 90.9 °F 61.0 °F 36% 29.78 in 10.0 mi South 13.8 mph 24.2 mph N/A   Clear
8:52 PM 88.0 °F 87.9 °F 61.0 °F 40% 29.79 in 10.0 mi South 9.2 mph 20.7 mph N/A   Clear
9:52 PM 87.1 °F 87.5 °F 62.1 °F 43% 29.81 in 10.0 mi South 9.2 mph - N/A   Clear
10:52 PM 82.9 °F 84.0 °F 63.0 °F 51% 29.84 in 10.0 mi SSE 9.2 mph - N/A   Clear
11:52 PM 82.9 °F 84.0 °F 63.0 °F 51% 29.86 in 10.0 mi SSE 10.4 mph - N/A   Clear